Terug naar catalogus

LEMUR-2-LUCILLE-ROSE

ActiefWetenschapSSO
NORAD 65403·PAYLOAD·🇺🇸 United States

Gelanceerd Jun 23, 2025 vanaf Vandenberg Space Force Base

Loading…

Volgende Passages (komende 24 uur)

TLE

VersSource: Space-Track

Epoch: Sep 14, 2026, 13:45 UTC

1 65403U 25135BV  26257.57297267  .00005231  00000-0  41144-3 0  9999
2 65403  97.7654  13.7342 0012448 357.1625   2.9526 15.01227444 62042

Volg LEMUR-2-LUCILLE-ROSE in realtime met AllMySat

Download on the App Store